Bloomington, IL

11:49 AM CDT on June 26, 2017 (GMT -0500)
Central Ill Regional

Weather History for KBMI - November, 2012

Change the Weather History Date:

Saturday, November 10, 2012

  Actual Average Record
Temperature  
Mean Temperature 61 °F -  
Max Temperature 70 °F 65 °F 70 °F (2010)
Min Temperature 52 °F 41 °F 20 °F (2008)
Degree Days  
Heating Degree Days 4    
Growing Degree Days 11 (Base 50)    
Moisture  
Dew Point 50 °F    
Average Humidity 71    
Maximum Humidity 100    
Minimum Humidity 45    
Precipitation  
Precipitation 0.00 in - - ()
Sea Level Pressure  
Sea Level Pressure 29.96 in    
Wind  
Wind Speed 17 mph (South)    
Max Wind Speed 28 mph    
Max Gust Speed -    
Visibility 10 miles    
Events      
Averages and records for this station are not official NWS values.
T = Trace of Precipitation, MM = Missing Value Source: NWS Daily Summary

Daily Weather History Graph

Daily Weather History Graph

Search for Another Location

Airport or City:

Trip Planner

Search our weather history database for the weather conditions in past years. The results will help you decide how hot, cold, wet, or windy it might be!

Date:

Astronomy

Nov. 10, 2012 Rise Set
Actual Time 6:36 AM CST 4:42 PM CST
Civil Twilight 6:07 AM CST 5:11 PM CST
Nautical Twilight 5:35 AM CST 5:43 PM CST
Astronomical Twilight 5:02 AM CST 6:15 PM CST
Moon 2:40 AM CST (11/10) 2:29 PM CST (11/10)
Length of Visible Light 11h 03m
Length of Day
10h 05m
Waning Crescent, 14% of the Moon is Illuminated
Nov 10
Waning Crescent
Nov 13
New
Nov 20
First Quarter
Nov 28
Full
Dec 6
Last Quarter

Hourly Weather History & Observations

Time (CST) Temp. Dew Point Humidity Pressure Visibility Wind Dir Wind Speed Gust Speed Precip Events Conditions
12:56 AM 52.0 °F 52.0 °F 100% 29.99 in 8.0 mi SSW 10.4 mph - N/A   Clear
1:56 AM 52.0 °F 52.0 °F 100% 30.00 in 9.0 mi SSW 10.4 mph - N/A   Clear
2:56 AM 52.9 °F 52.9 °F 100% 29.99 in 10.0 mi South 10.4 mph - N/A   Mostly Cloudy
3:56 AM 52.0 °F 52.0 °F 100% 30.00 in 10.0 mi South 12.7 mph - N/A   Mostly Cloudy
4:56 AM 52.9 °F 50.9 °F 93% 30.01 in 10.0 mi South 13.8 mph - N/A   Mostly Cloudy
6:56 AM 52.0 °F 46.9 °F 83% 30.01 in 10.0 mi South 15.0 mph - N/A   Clear
7:56 AM 54.0 °F 46.9 °F 77% 30.01 in 10.0 mi South 18.4 mph - N/A   Clear
8:56 AM 59.0 °F 48.9 °F 69% 30.00 in 10.0 mi South 18.4 mph - N/A   Partly Cloudy
9:56 AM 61.9 °F 50.0 °F 65% 29.98 in 10.0 mi South 21.9 mph - N/A   Clear
10:56 AM 66.9 °F 52.0 °F 59% 29.96 in 10.0 mi SSW 24.2 mph - N/A   Clear
11:56 AM 68.9 °F 52.9 °F 57% 29.94 in 10.0 mi SSW 24.2 mph - N/A   Clear
12:56 PM 70.0 °F 52.9 °F 55% 29.91 in 10.0 mi SSW 24.2 mph - N/A   Partly Cloudy
1:56 PM 70.9 °F 52.9 °F 53% 29.88 in 10.0 mi South 27.6 mph - N/A   Clear
2:56 PM 70.9 °F 50.0 °F 48% 29.89 in 10.0 mi South 27.6 mph - N/A   Clear
3:56 PM 68.9 °F 46.9 °F 45% 29.90 in 10.0 mi SSW 19.6 mph - N/A   Clear
4:56 PM 63.9 °F 46.9 °F 54% 29.93 in 10.0 mi South 18.4 mph - N/A   Clear
5:56 PM 61.9 °F 47.8 °F 60% 29.95 in 10.0 mi South 23.0 mph - N/A   Clear
6:56 PM 61.0 °F 48.9 °F 64% 29.96 in 10.0 mi South 23.0 mph - N/A   Clear
7:56 PM 59.9 °F 50.9 °F 72% 29.96 in 10.0 mi South 27.6 mph - N/A   Clear
8:56 PM 59.9 °F 50.9 °F 72% 29.96 in 10.0 mi South 21.9 mph - N/A   Clear
9:56 PM 59.0 °F 48.9 °F 69% 29.95 in 10.0 mi South 21.9 mph - N/A   Clear
10:56 PM 59.0 °F 46.9 °F 64% 29.94 in 10.0 mi South 21.9 mph - N/A   Clear
11:56 PM 57.9 °F 46.9 °F 67% 29.94 in 10.0 mi South 18.4 mph - N/A   Clear